Regional Weather Roundup
Issued by NWS Wakefield, VA

Home | Current Version | Previous Version | Text Only | Print | Product List | Glossary On
Versions: 1 2 3 4 5 6 7 8 9 10 11 12 13 14 15 16 17 18 19 20 21 22 23 24 25 26 27 28 29 30 31 32 33 34 35 36 37 38 39 40 41 42 43 44 45 46 47 48 49 50
000
ASUS41 KAKQ 271515
RWRAKQ

REGIONAL WEATHER ROUNDUP
NATIONAL WEATHER SERVICE WAKEFIELD VA
1100 AM EDT WED MAY 27 2015

Note: "fair" indicates few or no clouds below 12,000 feet with no
significant weather and/or obstructions to visibility. * = Denotes
station may not report precipitation (e.g., rain,snow,etc.),
thunder or fog.

VAZ042-051-052>054-056-271600-
NORTHERN VIRGINIA

CITY           SKY/WX    TMP DP  RH WIND       PRES   REMARKS
WASH NATIONAL  PTSUNNY   81  70  69 S12       30.16F
DULLES         PTSUNNY   79  68  69 SW12      30.16S
FORT BELVOIR   MOSUNNY   81  70  69 VRB7      30.16F
QUANTICO       PTSUNNY   80  71  74 S9        30.17S
FREDERICKSBRG* SUNNY     86  68  54 SW13G20   30.16S
STAFFORD*      SUNNY     83  64  53 SW8       30.20F
WARRENTON      MOSUNNY   84  71  65 S7        30.16F
CULPEPER*      MOSUNNY   81  68  64 SW10G16   30.17S
MANASSAS*      PTSUNNY   82  70  65 S9        30.16
LEESBURG*      PTSUNNY   81  72  74 S12       30.18R
WINCHESTER     PTSUNNY   82  63  51 SW8       30.16S
FRONT ROYAL*   FAIR      79  68  69 SW5       30.15S
LURAY*         FAIR      79  68  69 S10       30.18R
$$

VAZ048-049-060>072-079>083-271600-
CENTRAL AND SOUTH CENTRAL VIRGINIA

CITY           SKY/WX    TMP DP  RH WIND       PRES   REMARKS
RICHMOND       PTSUNNY   84  68  58 SW13G20   30.21S
CHESTERFIELD*  NOT AVBL
PETERSBURG*    PTSUNNY   82  73  73 S7        30.22S
HANOVER        SUNNY     84  67  56 SW14      30.21S
TAPPAHANNOCK*  SUNNY     83  63  50 S8        30.20S
QUINTON*       FAIR      81  69  66 S7        30.21S
CHARLOTTSVILLE PTSUNNY   80  67  64 S8        30.18S
GORDONSVILLE*  FAIR      81  67  63 S12       30.17S
ORANGE*        MOSUNNY   82  68  61 S12G18    30.19S
LOUISA*        SUNNY     82  66  57 SW10      30.18S
BUMPASS*       FAIR      81  65  58 SW8       30.18F
FARMVILLE*     MOSUNNY   82  64  55 SW8       30.19S
CREWE*         FAIR      81  65  57 S7        30.21F
FORT PICKETT*  FAIR      81  68  64 SW9G24    30.23S
CHASE CITY*    FAIR      83  69  63 SW8       30.23S
CLARKSVILLE*   FAIR      81  68  65 S9        30.23S
SOUTH HILL*    PTSUNNY   79  69  70 S10G17    30.29F
LAWRENCEVILLE* FAIR      81  70  69 S7        30.23F
EMPORIA*       PTSUNNY   79  70  73 S9        30.25F
$$

VAZ088>098-271600-
SOUTHEAST VIRGINIA

CITY           SKY/WX    TMP DP  RH WIND       PRES   REMARKS
NORFOLK        SUNNY     84  68  58 SW14G21   30.23S
VIRGINIA BEACH PTSUNNY   84  70  62 SW12G21   30.23F
NORFOLK NAVAL  MOSUNNY   87  69  54 SW12      30.24F
WEST POINT*    MOSUNNY   84  67  55 SW10      30.23S
SALUDA*        FAIR      80  69  69 SW6       30.21S
NEWPORT NEWS   SUNNY     86  69  56 S15       30.23F
LANGLEY AFB    MOSUNNY   82  70  67 SW14      30.21F
FORT EUSTIS    MOSUNNY   81  68  64 SW8       30.21F
WILLIAMSBURG*  SUNNY     84  72  65 S6        30.23F
HR EXEC AP*    FAIR      82  70  65 S10G17    30.25S
FRANKLIN*      PTSUNNY   81  69  67 S8G17     30.25R
WAKEFIELD      MOSUNNY   82  68  62 S10G16    30.23F
$$

VAZ020-022-025-037-045-271600-
WEST CENTRAL AND SOUTHWEST VIRGINIA

CITY           SKY/WX    TMP DP  RH WIND       PRES   REMARKS
STAUNTON*      CLOUDY    77  65  68 SW8       30.23S
WAYNESBORO*    FAIR      73  65  74 SW5       30.22S
HOT SPRINGS VA CLOUDY    65  62  91 W12G17    30.30S
LYNCHBURG      PTSUNNY   75  64  68 S10       30.23S
DANVILLE       MOSUNNY   81  64  56 W12       30.24S
SOUTH BOSTON*  FAIR      81  64  55 MISG      30.22F
MARTINSVILLE   PTSUNNY   73  66  77 SW5       30.28S
ROANOKE        PTSUNNY   78  62  57 W12       30.24S
BLACKSBURG     PTSUNNY   73  61  65 W5        30.29F
DUBLIN*        PTSUNNY   76  62  61 SW8       30.28R
MARION*        MOSUNNY   73  61  67 W9G17     30.32R
HILLSVILLE*    PTSUNNY   69  60  72 SW5       30.30S
RICHLANDS*     PTSUNNY   69  60  72 W8        30.31R
WISE*          PTSUNNY   70  55  60 SW10      30.31R
ABINGDON*      PTSUNNY   73  63  70 NW7       30.29R
$$

MDZ021>025-VAZ099-100-271600-
SOUTHERN MARYLAND AND THE DELMARVA PENINSULA

CITY           SKY/WX    TMP DP  RH WIND       PRES   REMARKS
PATUXENT RIVER MOSUNNY   81  68  64 S12       30.19S
BAY BRIDGE APT   N/A    N/A N/A N/A S10       30.18S
LEONARDTOWN    MOSUNNY   79  66  65 S8        30.20S
DOVER          MOSUNNY   81  73  76 S15       30.16S
GEORGETOWN     CLOUDY    79  69  71 S14       30.21F
EASTON         PTSUNNY   81  72  74 S10G16    30.22F
CAMBRIDGE      CLOUDY    79  68  69 SE13G18   30.19S
SALISBURY      CLOUDY    79  69  71 S12       30.21F
OCEAN CITY     CLOUDY    72  65  78 S9G18     30.23F
WALLOPS ISLAND PTSUNNY   74  68  81 S16G25    30.24S
ACCOMACK*      MOSUNNY   79  72  78 S12       30.22S
$$

NCZ012>017-030>032-271600-
NORTH CENTRAL AND EASTERN NORTH CAROLINA

CITY           SKY/WX    TMP DP  RH WIND       PRES   REMARKS
ROANOKE RAPIDS CLOUDY    77  68  73 SW10      30.25S
RALEIGH        PTSUNNY   80  70  71 SW9       30.26F
ELIZABETH CITY MOSUNNY   80  71  74 S12       30.27S
AHOSKIE*       MOSUNNY   80  70  72 CALM      30.26S
EDENTON*       CLOUDY    79  70  74 S9        30.27S
CURRITUCK*     NOT AVBL
KILL DEVIL HLS MOSUNNY   78  66  66 S8G17     30.27S
MANTEO         SUNNY     77  66  69 S14       30.29S
CAPE HATTERAS  SUNNY     77  64  64 S9        30.31R
TARBORO*       PTSUNNY   82  70  66 S9        30.27S
GOLDSBORO      PTSUNNY   81  70  69 SW7G18    30.24S
WASHINGTON     MOSUNNY   79  70  73 S8        30.27S
GREENVILLE     PTSUNNY   81  70  69 SW9       30.27S
NEW BERN       PTSUNNY   81  70  69 S8        30.29S
WILMINGTON     MOSUNNY   82  67  60 S6        30.27F
$$

VAZ048-271600-
ELSEWHERE

CITY           SKY/WX    TMP DP  RH WIND       PRES   REMARKS
HARRISBURG PA  PTSUNNY   83  68  60 S8        30.13S
BALTIMORE      PTSUNNY   79  68  69 SW9       30.16S
ANNAPOLIS      PTSUNNY   77  69  76 S13       30.17S
ANDREWS AFB    MOSUNNY   79  70  72 S10       30.16F
PHILADELPHIA   PTSUNNY   80  68  66 SW9       30.17F
HENDERSON NC   MOSUNNY   81  65  58 SW10      30.25S
GREENSBORO     PTSUNNY   76  64  66 W8        30.25F
ROCKY MOUNT    LGT RAIN  78  71  79 SW7       30.26S
$$

VAZ100-271600-
MARINE

STATION/POSITION TIME  TEMP    WIND        PRES    WAVE   SWELL
                       AIR SEA DIR/SP/G            HT/PER HT/PER
                 (UTC) (F)     (DEG/KT/KT) (MB)    (FT/S) (FT/S)
BRANDYWINE LGT   1400   71 66  200/ 12/ 13 1022.9S
CAPE MAY NJ      1400   71 69  160/ 10/ 12 1022.6F
LEWES DE         1400   77 63  220/  8/ 13 1022.7F
15NM E FENWICK I 1450   65 62              1023.6F   3/ 6
OCEAN-CITY-INLET 1400   64 64  210/ 13/ 16 1023.6F
WACHAPREAGUE VA  1400   75 74  200/ 14/ 17 1023.7F
THOMAS POINT MD  1500   72 68  170/ 16/ 17 1022.2F
GOOSES REEF MD   1500   71 69  170/ 12/ 14 1022.9F   1/ 2
COVE POINT MD    1400   71     180/ 10/ 12 1023.0F
SOLOMONS ISLAND  1400      70                N/A
BISHOPS HEAD MD  1400   73 72  170/ 12/ 15 1022.5F
PINEY POINT MD   1400          210/  6/  7   N/A
CAMBRIDGE MD     1400   76 71  200/  8/ 12 1022.3F
LEWISETTA VA     1400   77 71              1022.1F
RAPPAHANNOCK LGT 1400          170/ 13/ 14 1024.0F
STINGRAY PT      1500   76 72  200/  8/ 10 1023.5R   1/ 3
YORK RVR RNG VA  1400   75     210/ 11/ 13 1022.9F
YORKTOWN VA      1400   77 71  220/ 13/ 18 1023.1S
JAMESTOWN VA     1500   78 75  230/ 10/ 14 1022.5S
DOMINION TERM VA 1400   75     210/ 12/ 13 1023.8F
KIPTOPEKE VA     1400      74  180/  6/  7   N/A
CHES BAY BRIDGE  1400   76 71  200/ 12/ 15 1023.3F
CAPE HENRY VA    1400   79     220/  9/ 13 1022.6F
CHESAPEAKE LGHT  1400   67     180/ 23/ 24 1024.4S
WILLOUBY STN VA  1400   78     210/ 13/ 14 1024.5S
CAPE HENRY BUOY  1428      62                N/A     3/ 6
1ST LANDING BUOY 1500      71              1023.4F
CAPE CHARLES BUO 1426      66                N/A     3/ 6   2/ 6
OFFSHORE WE BUOY 1411      65                N/A     3/ 5   2/ 6
64NM E OF VA BCH 1450   66 63  160/ 10/ 10 1025.4S   3/ 5   3/ 5
DUCK PIER NC     1400   75 56  180/ 13/ 16 1024.0F
44100 DUCK FRF   1424      64                N/A     3/ 5
44056 DUCK FRF   1411      62                N/A     2/ 6
OREGON INLET NC  1400   75 75  180/ 12/ 15 1025.7F
HATTERAS NC      1400   77 74  160/  8/ 12 1025.5R
DIAMOND SHLS NC  1450   75 77  160/ 10/ 12 1026.1R   3/ 7   2/ 7
CAPE LOOKOUT NC  1500   75     150/  8/  9 1025.8R
$$



USA.gov is the U.S. government's official web portal to all federal, state and local government web resources and services.